Time,TemperatureF,DewpointF,PressureIn,WindDirection,WindDirectionDegrees,WindSpeedMPH,WindSpeedGustMPH,Humidity,HourlyPrecipIn,Conditions,Clouds,dailyrainin,SoftwareType,DateUTC
2013-04-10 00:00:00,65.3,34.7,29.96,SSE,151,0.0,0.0,32,0.00,,CLR,0.00,VWS V13.01,2013-04-10 04:00:00,
2013-04-10 00:05:00,64.9,34.4,29.96,SSE,155,0.0,5.0,32,0.00,,CLR,0.00,VWS V13.01,2013-04-10 04:05:00,
2013-04-10 00:10:00,64.9,34.4,29.96,SSW,193,0.0,3.9,32,0.00,,CLR,0.00,VWS V13.01,2013-04-10 04:10:00,
2013-04-10 00:15:00,65.5,34.9,29.96,South,177,0.0,0.0,32,0.00,,CLR,0.00,VWS V13.01,2013-04-10 04:15:00,
2013-04-10 00:20:00,66.0,35.3,29.96,SSE,155,0.0,3.4,32,0.00,,CLR,0.00,VWS V13.01,2013-04-10 04:20:00,
2013-04-10 00:25:00,66.0,35.3,29.96,SSE,158,0.0,0.0,32,0.00,,CLR,0.00,VWS V13.01,2013-04-10 04:25:00,
2013-04-10 00:30:00,65.5,34.9,29.96,ESE,114,0.0,0.0,32,0.00,,CLR,0.00,VWS V13.01,2013-04-10 04:30:00,
2013-04-10 00:35:00,64.4,33.9,29.96,North,0,3.4,3.9,32,0.00,,CLR,0.00,VWS V13.01,2013-04-10 04:35:00,
2013-04-10 00:40:00,63.3,33.8,29.96,WSW,238,0.0,0.0,33,0.00,,CLR,0.00,VWS V13.01,2013-04-10 04:40:00,
2013-04-10 00:45:00,62.8,34.8,29.96,North,357,5.0,5.0,35,0.00,,CLR,0.00,VWS V13.01,2013-04-10 04:45:00,
2013-04-10 00:50:00,61.9,34.7,29.96,North,357,3.4,3.9,36,0.00,,CLR,0.00,VWS V13.01,2013-04-10 04:50:00,
2013-04-10 00:55:00,61.5,34.3,29.96,North,1,0.0,0.0,36,0.00,,CLR,0.00,VWS V13.01,2013-04-10 04:55:00,
2013-04-10 01:00:00,61.3,34.2,29.96,North,1,0.0,0.0,36,0.00,,CLR,0.00,VWS V13.01,2013-04-10 05:00:00,
2013-04-10 01:05:00,60.8,33.7,29.96,North,1,0.0,0.0,36,0.00,,CLR,0.00,VWS V13.01,2013-04-10 05:05:00,
2013-04-10 01:10:00,60.3,33.2,29.96,North,1,0.0,0.0,36,0.00,,CLR,0.00,VWS V13.01,2013-04-10 05:10:00,
2013-04-10 01:15:00,59.4,33.1,29.96,North,1,0.0,0.0,37,0.00,,CLR,0.00,VWS V13.01,2013-04-10 05:15:00,
2013-04-10 01:20:00,58.8,32.6,29.96,North,1,0.0,0.0,37,0.00,,CLR,0.00,VWS V13.01,2013-04-10 05:20:00,
2013-04-10 01:25:00,58.1,32.7,29.96,North,1,0.0,0.0,38,0.00,,CLR,0.00,VWS V13.01,2013-04-10 05:25:00,
2013-04-10 01:30:00,57.6,32.2,29.96,North,1,0.0,0.0,38,0.00,,CLR,0.00,VWS V13.01,2013-04-10 05:30:00,
2013-04-10 01:35:00,57.4,32.0,29.96,North,1,0.0,0.0,38,0.00,,CLR,0.00,VWS V13.01,2013-04-10 05:35:00,
2013-04-10 01:40:00,57.0,32.3,29.96,North,1,0.0,0.0,39,0.00,,CLR,0.00,VWS V13.01,2013-04-10 05:40:00,
2013-04-10 01:45:00,56.7,32.0,29.96,North,1,0.0,0.0,39,0.00,,CLR,0.00,VWS V13.01,2013-04-10 05:45:00,
2013-04-10 01:50:00,56.3,31.7,29.96,North,1,0.0,0.0,39,0.00,,CLR,0.00,VWS V13.01,2013-04-10 05:50:00,
2013-04-10 01:55:00,56.1,31.5,29.96,North,1,0.0,0.0,39,0.00,,CLR,0.00,VWS V13.01,2013-04-10 05:55:00,
2013-04-10 02:00:00,55.9,32.0,29.96,North,1,0.0,0.0,40,0.00,,CLR,0.00,VWS V13.01,2013-04-10 06:00:00,
2013-04-10 02:05:00,55.6,31.7,29.96,North,1,0.0,0.0,40,0.00,,CLR,0.00,VWS V13.01,2013-04-10 06:05:00,
2013-04-10 02:10:00,55.6,32.3,29.96,North,1,0.0,0.0,41,0.00,,CLR,0.00,VWS V13.01,2013-04-10 06:10:00,
2013-04-10 02:15:00,55.4,32.1,29.96,North,1,0.0,0.0,41,0.00,,CLR,0.00,VWS V13.01,2013-04-10 06:15:00,
2013-04-10 02:20:00,55.2,32.5,29.96,North,1,0.0,0.0,42,0.00,,CLR,0.00,VWS V13.01,2013-04-10 06:20:00,
2013-04-10 02:25:00,55.2,32.5,29.96,North,1,0.0,0.0,42,0.00,,CLR,0.00,VWS V13.01,2013-04-10 06:25:00,
2013-04-10 02:30:00,55.0,32.4,29.96,North,1,0.0,0.0,42,0.00,,CLR,0.00,VWS V13.01,2013-04-10 06:30:00,
2013-04-10 02:35:00,54.9,32.2,29.96,North,1,0.0,0.0,42,0.00,,CLR,0.00,VWS V13.01,2013-04-10 06:35:00,
2013-04-10 02:40:00,54.7,32.6,29.96,North,1,0.0,0.0,43,0.00,,CLR,0.00,VWS V13.01,2013-04-10 06:40:00,
2013-04-10 02:45:00,54.9,33.9,29.96,North,1,0.0,0.0,45,0.00,,CLR,0.00,VWS V13.01,2013-04-10 06:45:00,
2013-04-10 02:50:00,55.6,34.6,29.96,North,1,0.0,0.0,45,0.00,,CLR,0.00,VWS V13.01,2013-04-10 06:50:00,
2013-04-10 02:55:00,55.8,34.2,29.96,North,0,0.0,0.0,44,0.00,,CLR,0.00,VWS V13.01,2013-04-10 06:55:00,
2013-04-10 03:00:00,55.9,34.4,29.96,North,0,0.0,0.0,44,0.00,,CLR,0.00,VWS V13.01,2013-04-10 07:00:00,
2013-04-10 03:05:00,55.8,33.6,29.96,North,0,0.0,0.0,43,0.00,,CLR,0.00,VWS V13.01,2013-04-10 07:05:00,
2013-04-10 03:10:00,55.4,33.3,29.96,North,0,0.0,0.0,43,0.00,,CLR,0.00,VWS V13.01,2013-04-10 07:10:00,
2013-04-10 03:15:00,54.9,33.4,29.96,North,0,0.0,0.0,44,0.00,,CLR,0.00,VWS V13.01,2013-04-10 07:15:00,
2013-04-10 03:20:00,55.0,34.1,29.96,North,0,0.0,0.0,45,0.00,,CLR,0.00,VWS V13.01,2013-04-10 07:20:00,
2013-04-10 03:26:00,54.9,33.9,29.96,North,0,0.0,0.0,45,0.00,,CLR,0.00,VWS V13.01,2013-04-10 07:26:00,
2013-04-10 03:31:00,54.5,33.6,29.96,ENE,77,0.0,0.0,45,0.00,,CLR,0.00,VWS V13.01,2013-04-10 07:31:00,
2013-04-10 03:36:00,54.3,33.5,29.96,NNW,339,3.4,4.5,45,0.00,,CLR,0.00,VWS V13.01,2013-04-10 07:36:00,
2013-04-10 03:41:00,53.8,33.0,29.96,North,357,0.0,0.0,45,0.00,,CLR,0.00,VWS V13.01,2013-04-10 07:41:00,
2013-04-10 03:46:00,54.0,34.2,29.96,NNE,27,3.9,3.9,47,0.00,,CLR,0.00,VWS V13.01,2013-04-10 07:46:00,
2013-04-10 03:51:00,54.7,35.4,29.96,NE,56,0.0,0.0,48,0.00,,CLR,0.00,VWS V13.01,2013-04-10 07:51:00,
2013-04-10 03:56:00,54.5,34.7,29.96,SSE,157,0.0,0.0,47,0.00,,CLR,0.00,VWS V13.01,2013-04-10 07:56:00,
2013-04-10 04:01:00,54.5,34.7,29.96,WSW,241,0.0,0.0,47,0.00,,CLR,0.00,VWS V13.01,2013-04-10 08:01:00,
2013-04-10 04:06:00,54.3,35.1,29.96,WSW,241,0.0,0.0,48,0.00,,CLR,0.00,VWS V13.01,2013-04-10 08:06:00,
2013-04-10 04:11:00,54.0,34.2,29.99,WSW,241,0.0,0.0,47,0.00,,CLR,0.00,VWS V13.01,2013-04-10 08:11:00,
2013-04-10 04:16:00,53.4,34.2,29.99,WSW,241,0.0,0.0,48,0.00,,CLR,0.00,VWS V13.01,2013-04-10 08:16:00,
2013-04-10 04:21:00,53.1,33.9,29.99,WSW,241,0.0,0.0,48,0.00,,CLR,0.00,VWS V13.01,2013-04-10 08:21:00,
2013-04-10 04:26:00,52.5,33.4,29.99,WSW,241,0.0,0.0,48,0.00,,CLR,0.00,VWS V13.01,2013-04-10 08:26:00,
2013-04-10 04:31:00,52.3,33.2,29.99,West,259,0.0,0.0,48,0.00,,CLR,0.00,VWS V13.01,2013-04-10 08:31:00,
2013-04-10 04:36:00,52.3,33.8,29.99,West,259,0.0,3.9,49,0.00,,CLR,0.00,VWS V13.01,2013-04-10 08:36:00,
2013-04-10 04:41:00,52.0,33.4,29.99,West,259,0.0,0.0,49,0.00,,CLR,0.00,VWS V13.01,2013-04-10 08:41:00,
2013-04-10 04:46:00,51.8,33.3,29.99,West,259,0.0,0.0,49,0.00,,CLR,0.00,VWS V13.01,2013-04-10 08:46:00,
2013-04-10 04:51:00,51.6,33.6,29.99,West,259,0.0,0.0,50,0.00,,CLR,0.00,VWS V13.01,2013-04-10 08:51:00,
2013-04-10 04:56:00,51.6,33.6,29.99,West,259,0.0,0.0,50,0.00,,CLR,0.00,VWS V13.01,2013-04-10 08:56:00,
2013-04-10 05:01:00,51.4,33.4,29.99,NNW,348,0.0,0.0,50,0.00,,CLR,0.00,VWS V13.01,2013-04-10 09:01:00,
2013-04-10 05:06:00,51.4,33.9,29.99,NNW,348,0.0,0.0,51,0.00,,CLR,0.00,VWS V13.01,2013-04-10 09:06:00,
2013-04-10 05:11:00,51.4,34.4,29.99,NNW,348,0.0,0.0,52,0.00,,CLR,0.00,VWS V13.01,2013-04-10 09:11:00,
2013-04-10 05:16:00,51.4,34.4,29.99,NW,316,0.0,0.0,52,0.00,,CLR,0.00,VWS V13.01,2013-04-10 09:16:00,
2013-04-10 05:21:00,51.4,34.4,29.99,NW,316,0.0,0.0,52,0.00,,CLR,0.00,VWS V13.01,2013-04-10 09:21:00,
2013-04-10 05:26:00,51.4,34.4,29.99,West,278,0.0,3.9,52,0.00,,CLR,0.00,VWS V13.01,2013-04-10 09:26:00,
2013-04-10 05:31:00,51.4,34.4,29.99,West,278,0.0,0.0,52,0.00,,CLR,0.00,VWS V13.01,2013-04-10 09:31:00,
2013-04-10 05:36:00,51.6,35.1,29.99,WSW,256,2.8,3.4,53,0.00,,CLR,0.00,VWS V13.01,2013-04-10 09:36:00,
2013-04-10 05:41:00,51.6,35.1,29.99,WSW,249,0.0,0.0,53,0.00,,CLR,0.00,VWS V13.01,2013-04-10 09:41:00,
2013-04-10 05:46:00,51.6,35.1,29.99,WSW,249,0.0,0.0,53,0.00,,CLR,0.00,VWS V13.01,2013-04-10 09:46:00,
2013-04-10 05:51:00,51.6,35.1,29.99,West,267,0.0,0.0,53,0.00,,CLR,0.00,VWS V13.01,2013-04-10 09:51:00,
2013-04-10 05:56:00,51.4,35.4,29.99,West,276,2.8,3.4,54,0.00,,CLR,0.00,VWS V13.01,2013-04-10 09:56:00,
2013-04-10 06:01:00,51.4,35.4,29.99,West,276,0.0,0.0,54,0.00,,CLR,0.00,VWS V13.01,2013-04-10 10:01:00,
2013-04-10 06:06:00,51.4,35.4,29.99,West,276,0.0,0.0,54,0.00,,CLR,0.00,VWS V13.01,2013-04-10 10:06:00,
2013-04-10 06:11:00,51.3,34.7,29.99,North,8,0.0,0.0,53,0.00,,CLR,0.00,VWS V13.01,2013-04-10 10:11:00,
2013-04-10 06:16:00,50.9,34.9,29.99,WSW,253,2.8,4.5,54,0.00,,CLR,0.00,VWS V13.01,2013-04-10 10:16:00,
2013-04-10 06:21:00,50.7,34.7,29.99,SSE,151,0.0,0.0,54,0.00,,CLR,0.00,VWS V13.01,2013-04-10 10:21:00,
2013-04-10 06:26:00,50.9,35.3,29.99,East,100,0.0,0.0,55,0.00,,CLR,0.00,VWS V13.01,2013-04-10 10:26:00,
2013-04-10 06:31:00,50.9,36.2,29.99,SSE,167,0.0,0.0,57,0.00,,CLR,0.00,VWS V13.01,2013-04-10 10:31:00,
2013-04-10 06:36:00,50.9,36.2,29.99,WSW,251,3.9,3.9,57,0.00,,CLR,0.00,VWS V13.01,2013-04-10 10:36:00,
2013-04-10 06:41:00,50.9,36.2,30.02,WSW,245,0.0,0.0,57,0.00,,CLR,0.00,VWS V13.01,2013-04-10 10:41:00,
2013-04-10 06:46:00,50.9,36.2,30.02,North,4,0.0,3.4,57,0.00,,CLR,0.00,VWS V13.01,2013-04-10 10:46:00,
2013-04-10 06:51:00,50.7,35.6,30.02,WSW,244,0.0,0.0,56,0.00,,CLR,0.00,VWS V13.01,2013-04-10 10:51:00,
2013-04-10 06:56:00,50.7,35.6,30.02,WSW,243,2.8,2.8,56,0.00,,CLR,0.00,VWS V13.01,2013-04-10 10:56:00,
2013-04-10 07:01:00,50.9,36.2,30.02,NNW,338,0.0,0.0,57,0.00,,CLR,0.00,VWS V13.01,2013-04-10 11:01:00,
2013-04-10 07:06:00,51.1,36.4,30.02,WNW,299,0.0,0.0,57,0.00,,CLR,0.00,VWS V13.01,2013-04-10 11:06:00,
2013-04-10 07:11:00,51.1,36.0,30.02,NNW,329,0.0,0.0,56,0.00,,CLR,0.00,VWS V13.01,2013-04-10 11:11:00,
2013-04-10 07:16:00,50.9,35.8,30.02,NNW,329,0.0,0.0,56,0.00,,CLR,0.00,VWS V13.01,2013-04-10 11:16:00,
2013-04-10 07:21:00,51.1,36.0,30.02,North,353,3.4,5.0,56,0.00,,CLR,0.00,VWS V13.01,2013-04-10 11:21:00,
2013-04-10 07:26:00,51.3,36.6,30.02,WSW,246,0.0,0.0,57,0.00,,CLR,0.00,VWS V13.01,2013-04-10 11:26:00,
2013-04-10 07:31:00,52.2,36.5,30.02,WSW,246,0.0,0.0,55,0.00,,CLR,0.00,VWS V13.01,2013-04-10 11:31:00,
2013-04-10 07:36:00,53.4,38.1,30.02,WSW,246,0.0,0.0,56,0.00,,CLR,0.00,VWS V13.01,2013-04-10 11:36:00,
2013-04-10 07:41:00,54.9,39.5,30.02,WSW,246,0.0,0.0,56,0.00,,CLR,0.00,VWS V13.01,2013-04-10 11:41:00,
2013-04-10 07:46:00,56.1,40.2,30.02,WSW,246,0.0,0.0,55,0.00,,CLR,0.00,VWS V13.01,2013-04-10 11:46:00,
2013-04-10 07:51:00,57.4,40.4,30.02,WSW,246,0.0,0.0,53,0.00,,CLR,0.00,VWS V13.01,2013-04-10 11:51:00,
2013-04-10 07:56:00,58.5,40.9,30.02,WSW,246,0.0,0.0,52,0.00,,CLR,0.00,VWS V13.01,2013-04-10 11:56:00,
2013-04-10 08:01:00,59.5,41.4,30.02,WSW,246,0.0,0.0,51,0.00,,CLR,0.00,VWS V13.01,2013-04-10 12:01:00,
2013-04-10 08:06:00,61.0,42.2,30.02,West,273,0.0,0.0,50,0.00,,CLR,0.00,VWS V13.01,2013-04-10 12:06:00,
2013-04-10 08:11:00,62.1,42.7,30.02,West,267,0.0,0.0,49,0.00,,CLR,0.00,VWS V13.01,2013-04-10 12:11:00,
2013-04-10 08:16:00,63.1,42.0,30.02,SSE,151,3.4,3.4,46,0.00,,CLR,0.00,VWS V13.01,2013-04-10 12:16:00,
2013-04-10 08:21:00,63.7,41.4,30.02,WNW,292,0.0,3.4,44,0.00,,CLR,0.00,VWS V13.01,2013-04-10 12:21:00,
2013-04-10 08:26:00,63.7,40.2,30.02,West,265,2.8,3.4,42,0.00,,CLR,0.00,VWS V13.01,2013-04-10 12:26:00,
2013-04-10 08:31:00,63.1,38.5,30.02,West,265,0.0,0.0,40,0.00,,CLR,0.00,VWS V13.01,2013-04-10 12:31:00,
2013-04-10 08:36:00,62.4,37.8,30.02,West,265,0.0,0.0,40,0.00,,CLR,0.00,VWS V13.01,2013-04-10 12:36:00,
2013-04-10 08:41:00,61.9,38.0,30.02,West,265,0.0,0.0,41,0.00,,CLR,0.00,VWS V13.01,2013-04-10 12:41:00,
2013-04-10 08:46:00,61.5,37.0,30.02,West,265,0.0,0.0,40,0.00,,CLR,0.00,VWS V13.01,2013-04-10 12:46:00,
2013-04-10 08:51:00,61.5,37.6,30.02,West,265,0.0,0.0,41,0.00,,CLR,0.00,VWS V13.01,2013-04-10 12:51:00,
2013-04-10 08:56:00,61.9,38.0,30.02,West,265,0.0,0.0,41,0.00,,CLR,0.00,VWS V13.01,2013-04-10 12:56:00,
2013-04-10 09:01:00,62.2,38.3,30.02,West,265,0.0,0.0,41,0.00,,CLR,0.00,VWS V13.01,2013-04-10 13:01:00,
2013-04-10 09:06:00,63.5,39.4,30.02,West,265,0.0,0.0,41,0.00,,CLR,0.00,VWS V13.01,2013-04-10 13:06:00,
2013-04-10 09:11:00,65.1,40.2,30.02,SE,145,3.9,3.9,40,0.00,,CLR,0.00,VWS V13.01,2013-04-10 13:11:00,
2013-04-10 09:16:00,66.2,39.9,30.02,SE,136,0.0,0.0,38,0.00,,CLR,0.00,VWS V13.01,2013-04-10 13:16:00,
2013-04-10 09:21:00,67.6,39.8,30.02,South,170,0.0,3.9,36,0.00,,CLR,0.00,VWS V13.01,2013-04-10 13:21:00,
2013-04-10 09:26:00,69.1,41.0,30.02,SSE,153,3.4,4.5,36,0.00,,CLR,0.00,VWS V13.01,2013-04-10 13:26:00,
2013-04-10 09:31:00,70.5,41.6,30.02,SE,130,3.4,3.9,35,0.00,,CLR,0.00,VWS V13.01,2013-04-10 13:31:00,
2013-04-10 09:36:00,72.0,42.1,30.02,SSE,162,3.4,4.5,34,0.00,,CLR,0.00,VWS V13.01,2013-04-10 13:36:00,
2013-04-10 09:41:00,73.0,43.0,30.02,South,183,3.4,5.0,34,0.00,,CLR,0.00,VWS V13.01,2013-04-10 13:41:00,
2013-04-10 09:46:00,74.1,43.2,30.02,South,174,4.5,5.0,33,0.00,,CLR,0.00,VWS V13.01,2013-04-10 13:46:00,
2013-04-10 09:51:00,74.7,43.7,30.02,SSE,159,4.5,4.5,33,0.00,,CLR,0.00,VWS V13.01,2013-04-10 13:51:00,
2013-04-10 09:56:00,75.4,43.5,30.02,SE,135,6.7,6.7,32,0.00,,CLR,0.00,VWS V13.01,2013-04-10 13:56:00,
2013-04-10 10:01:00,76.3,44.3,30.02,South,173,7.3,7.8,32,0.00,,CLR,0.00,VWS V13.01,2013-04-10 14:01:00,
2013-04-10 10:06:00,77.0,44.9,30.02,SE,124,4.5,4.5,32,0.00,,CLR,0.00,VWS V13.01,2013-04-10 14:06:00,
2013-04-10 10:11:00,77.7,43.8,30.02,ESE,121,4.5,6.7,30,0.00,,CLR,0.00,VWS V13.01,2013-04-10 14:11:00,
2013-04-10 10:16:00,78.4,44.5,30.02,SE,128,3.9,5.0,30,0.00,,CLR,0.00,VWS V13.01,2013-04-10 14:16:00,
2013-04-10 10:21:00,79.0,44.0,30.02,South,178,5.0,7.3,29,0.00,,CLR,0.00,VWS V13.01,2013-04-10 14:21:00,
2013-04-10 10:26:00,79.3,44.4,29.99,SSE,149,3.9,5.0,29,0.00,,CLR,0.00,VWS V13.01,2013-04-10 14:26:00,
2013-04-10 10:31:00,79.2,42.3,29.99,WSW,247,5.0,5.0,27,0.00,,CLR,0.00,VWS V13.01,2013-04-10 14:31:00,
2013-04-10 10:36:00,79.0,42.2,29.99,SSW,194,3.9,6.7,27,0.00,,CLR,0.00,VWS V13.01,2013-04-10 14:36:00,
2013-04-10 10:41:00,79.3,42.5,29.99,SSE,153,7.3,7.3,27,0.00,,CLR,0.00,VWS V13.01,2013-04-10 14:41:00,
2013-04-10 10:46:00,79.7,42.8,29.99,SE,134,4.5,5.0,27,0.00,,CLR,0.00,VWS V13.01,2013-04-10 14:46:00,
2013-04-10 10:51:00,80.1,43.1,29.99,SE,139,4.5,6.7,27,0.00,,CLR,0.00,VWS V13.01,2013-04-10 14:51:00,
2013-04-10 10:56:00,80.1,43.1,29.99,SSE,154,7.8,7.8,27,0.00,,CLR,0.00,VWS V13.01,2013-04-10 14:56:00,
2013-04-10 11:01:00,80.2,43.3,29.99,SSE,165,5.0,7.3,27,0.00,,CLR,0.00,VWS V13.01,2013-04-10 15:01:00,
2013-04-10 11:06:00,80.4,43.4,29.99,SSE,165,6.7,10.3,27,0.00,,CLR,0.00,VWS V13.01,2013-04-10 15:06:00,
2013-04-10 11:11:00,80.8,42.7,29.99,SE,138,7.3,7.8,26,0.00,,CLR,0.00,VWS V13.01,2013-04-10 15:11:00,
2013-04-10 11:16:00,81.3,43.2,29.99,SSW,194,0.0,9.5,26,0.00,,CLR,0.00,VWS V13.01,2013-04-10 15:16:00,
2013-04-10 11:21:00,81.9,43.7,29.99,SE,146,3.9,6.2,26,0.00,,CLR,0.00,VWS V13.01,2013-04-10 15:21:00,
2013-04-10 11:26:00,82.6,44.3,29.99,SE,129,0.0,2.8,26,0.00,,CLR,0.00,VWS V13.01,2013-04-10 15:26:00,
2013-04-10 11:31:00,83.3,44.9,29.99,East,79,6.7,7.3,26,0.00,,CLR,0.00,VWS V13.01,2013-04-10 15:31:00,
2013-04-10 11:36:00,84.0,45.5,29.99,SE,139,6.7,10.1,26,0.00,,CLR,0.00,VWS V13.01,2013-04-10 15:36:00,
2013-04-10 11:41:00,83.7,45.2,29.99,South,170,5.0,6.7,26,0.00,,CLR,0.00,VWS V13.01,2013-04-10 15:41:00,
2013-04-10 11:46:00,83.7,45.2,29.99,SSE,156,3.9,7.3,26,0.00,,CLR,0.00,VWS V13.01,2013-04-10 15:46:00,
2013-04-10 11:51:00,84.4,44.8,29.99,South,170,5.0,5.0,25,0.00,,CLR,0.00,VWS V13.01,2013-04-10 15:51:00,
2013-04-10 11:56:00,84.9,45.2,29.99,West,271,6.2,10.1,25,0.00,,CLR,0.00,VWS V13.01,2013-04-10 15:56:00,
2013-04-10 12:01:00,85.5,45.7,29.99,WSW,245,7.8,10.1,25,0.00,,CLR,0.00,VWS V13.01,2013-04-10 16:01:00,
2013-04-10 12:06:00,85.5,45.7,29.99,West,281,6.7,6.7,25,0.00,,CLR,0.00,VWS V13.01,2013-04-10 16:06:00,
2013-04-10 12:11:00,85.3,45.5,29.99,WSW,240,7.8,8.4,25,0.00,,CLR,0.00,VWS V13.01,2013-04-10 16:11:00,
2013-04-10 12:16:00,85.5,45.7,29.99,SSW,207,3.4,6.2,25,0.00,,CLR,0.00,VWS V13.01,2013-04-10 16:16:00,
2013-04-10 12:21:00,85.6,45.8,29.99,WSW,250,6.7,7.3,25,0.00,,CLR,0.00,VWS V13.01,2013-04-10 16:21:00,
2013-04-10 12:26:00,85.3,45.5,29.96,WSW,251,5.0,9.5,25,0.00,,CLR,0.00,VWS V13.01,2013-04-10 16:26:00,
2013-04-10 12:31:00,85.1,45.4,29.96,South,187,3.9,7.8,25,0.00,,CLR,0.00,VWS V13.01,2013-04-10 16:31:00,
2013-04-10 12:36:00,85.3,45.5,29.96,WSW,238,7.8,7.8,25,0.00,,CLR,0.00,VWS V13.01,2013-04-10 16:36:00,
2013-04-10 12:41:00,85.6,45.8,29.96,WSW,239,3.4,7.8,25,0.00,,CLR,0.00,VWS V13.01,2013-04-10 16:41:00,
2013-04-10 12:46:00,85.8,46.0,29.96,West,267,10.1,10.3,25,0.00,,CLR,0.00,VWS V13.01,2013-04-10 16:46:00,
2013-04-10 12:51:00,86.4,46.4,29.96,WSW,241,7.8,7.8,25,0.00,,CLR,0.00,VWS V13.01,2013-04-10 16:51:00,
2013-04-10 12:56:00,86.9,46.9,29.96,West,273,2.8,7.8,25,0.00,,CLR,0.00,VWS V13.01,2013-04-10 16:56:00,
2013-04-10 13:01:00,87.1,47.0,29.96,West,278,7.8,7.8,25,0.00,,CLR,0.00,VWS V13.01,2013-04-10 17:01:00,
2013-04-10 13:06:00,87.1,47.0,29.96,SSW,194,4.5,8.9,25,0.00,,CLR,0.00,VWS V13.01,2013-04-10 17:06:00,
2013-04-10 13:11:00,87.1,47.0,29.96,WSW,248,10.9,10.9,25,0.00,,CLR,0.00,VWS V13.01,2013-04-10 17:11:00,
2013-04-10 13:16:00,87.1,47.0,29.96,WSW,253,6.2,7.8,25,0.00,,CLR,0.00,VWS V13.01,2013-04-10 17:16:00,
2013-04-10 13:21:00,87.1,47.0,29.96,West,275,4.5,10.3,25,0.00,,CLR,0.00,VWS V13.01,2013-04-10 17:21:00,
2013-04-10 13:26:00,86.9,46.9,29.93,SSW,193,6.2,6.2,25,0.00,,CLR,0.00,VWS V13.01,2013-04-10 17:26:00,
2013-04-10 13:31:00,86.7,46.7,29.93,SSE,152,3.4,5.6,25,0.00,,CLR,0.00,VWS V13.01,2013-04-10 17:31:00,
2013-04-10 13:36:00,86.7,46.7,29.93,WSW,247,4.5,6.2,25,0.00,,CLR,0.00,VWS V13.01,2013-04-10 17:36:00,
2013-04-10 13:41:00,87.1,47.0,29.93,WSW,250,13.7,13.7,25,0.00,,CLR,0.00,VWS V13.01,2013-04-10 17:41:00,
2013-04-10 13:46:00,86.7,46.7,29.93,West,269,10.1,10.9,25,0.00,,CLR,0.00,VWS V13.01,2013-04-10 17:46:00,
2013-04-10 13:51:00,86.5,46.6,29.93,West,276,3.9,4.5,25,0.00,,CLR,0.00,VWS V13.01,2013-04-10 17:51:00,
2013-04-10 13:56:00,87.1,47.0,29.93,South,178,7.3,8.4,25,0.00,,CLR,0.00,VWS V13.01,2013-04-10 17:56:00,
2013-04-10 14:01:00,86.7,46.7,29.93,WNW,289,3.9,7.8,25,0.00,,CLR,0.00,VWS V13.01,2013-04-10 18:01:00,
2013-04-10 14:06:00,86.9,46.9,29.93,West,268,6.2,6.2,25,0.00,,CLR,0.00,VWS V13.01,2013-04-10 18:06:00,
2013-04-10 14:10:00,86.7,46.7,29.93,WSW,257,4.5,10.1,25,0.00,,CLR,0.00,VWS V13.01,2013-04-10 18:10:00,
2013-04-10 14:15:00,86.9,46.9,29.93,SSW,192,6.7,13.1,25,0.00,,CLR,0.00,VWS V13.01,2013-04-10 18:15:00,
2013-04-10 14:21:00,86.9,46.9,29.93,SSE,165,3.9,6.7,25,0.00,,CLR,0.00,VWS V13.01,2013-04-10 18:21:00,
2013-04-10 14:26:00,87.1,47.0,29.93,West,276,3.9,10.1,25,0.00,,CLR,0.00,VWS V13.01,2013-04-10 18:26:00,
2013-04-10 14:31:00,87.1,47.0,29.93,SSE,160,10.1,10.9,25,0.00,,CLR,0.00,VWS V13.01,2013-04-10 18:31:00,
2013-04-10 14:36:00,87.1,47.0,29.93,SSE,165,8.9,9.5,25,0.00,,CLR,0.00,VWS V13.01,2013-04-10 18:36:00,
2013-04-10 14:41:00,87.3,47.2,29.93,WSW,248,5.0,10.9,25,0.00,,CLR,0.00,VWS V13.01,2013-04-10 18:41:00,
2013-04-10 14:46:00,87.4,47.3,29.93,NE,48,3.4,10.9,25,0.00,,CLR,0.00,VWS V13.01,2013-04-10 18:46:00,
2013-04-10 14:51:00,87.4,47.3,29.93,ESE,111,3.9,7.8,25,0.00,,CLR,0.00,VWS V13.01,2013-04-10 18:51:00,
2013-04-10 14:56:00,87.4,47.3,29.90,SE,133,5.0,7.3,25,0.00,,CLR,0.00,VWS V13.01,2013-04-10 18:56:00,
2013-04-10 15:01:00,87.8,47.6,29.90,South,177,4.5,6.7,25,0.00,,CLR,0.00,VWS V13.01,2013-04-10 19:01:00,
2013-04-10 15:06:00,88.2,47.9,29.90,SSW,193,7.8,10.3,25,0.00,,CLR,0.00,VWS V13.01,2013-04-10 19:06:00,
2013-04-10 15:11:00,88.0,47.8,29.90,West,265,6.2,6.2,25,0.00,,CLR,0.00,VWS V13.01,2013-04-10 19:11:00,
2013-04-10 15:16:00,88.2,47.9,29.90,SSW,198,7.3,13.1,25,0.00,,CLR,0.00,VWS V13.01,2013-04-10 19:16:00,
2013-04-10 15:21:00,87.8,47.6,29.90,SSW,200,6.7,10.9,25,0.00,,CLR,0.00,VWS V13.01,2013-04-10 19:21:00,
2013-04-10 15:26:00,87.6,47.5,29.90,SE,136,4.5,5.0,25,0.00,,CLR,0.00,VWS V13.01,2013-04-10 19:26:00,
2013-04-10 15:31:00,87.6,47.5,29.90,SW,234,7.8,11.5,25,0.00,,CLR,0.00,VWS V13.01,2013-04-10 19:31:00,
2013-04-10 15:36:00,87.6,47.5,29.90,South,187,7.8,7.8,25,0.00,,CLR,0.00,VWS V13.01,2013-04-10 19:36:00,
2013-04-10 15:41:00,87.4,47.3,29.87,WNW,285,3.9,5.0,25,0.00,,CLR,0.00,VWS V13.01,2013-04-10 19:41:00,
2013-04-10 15:46:00,87.3,47.2,29.87,West,281,5.0,13.7,25,0.00,,CLR,0.00,VWS V13.01,2013-04-10 19:46:00,
2013-04-10 15:51:00,87.4,47.3,29.87,WSW,238,7.8,9.5,25,0.00,,CLR,0.00,VWS V13.01,2013-04-10 19:51:00,
2013-04-10 15:56:00,87.6,47.5,29.87,SSW,197,2.8,7.3,25,0.00,,CLR,0.00,VWS V13.01,2013-04-10 19:56:00,
2013-04-10 16:12:00,88.0,47.8,29.87,WSW,241,10.9,10.9,25,0.00,,CLR,0.00,VWS V13.01,2013-04-10 20:12:00,
2013-04-10 16:17:00,88.0,47.8,29.87,SSE,164,7.3,13.1,25,0.00,,CLR,0.00,VWS V13.01,2013-04-10 20:17:00,
2013-04-10 16:23:00,87.6,47.5,29.87,SW,227,4.5,9.5,25,0.00,,CLR,0.00,VWS V13.01,2013-04-10 20:23:00,
2013-04-10 16:28:00,87.6,47.5,29.87,SSE,150,6.7,7.8,25,0.00,,CLR,0.00,VWS V13.01,2013-04-10 20:28:00,
2013-04-10 16:33:00,87.6,47.5,29.87,ESE,115,8.4,12.0,25,0.00,,CLR,0.00,VWS V13.01,2013-04-10 20:33:00,
2013-04-10 16:38:00,87.6,47.5,29.87,WSW,250,3.9,7.3,25,0.00,,CLR,0.00,VWS V13.01,2013-04-10 20:38:00,
2013-04-10 16:43:00,87.4,47.3,29.87,SSW,202,3.9,10.9,25,0.00,,CLR,0.00,VWS V13.01,2013-04-10 20:43:00,
2013-04-10 16:48:00,87.4,47.3,29.87,WSW,257,7.8,7.8,25,0.00,,CLR,0.00,VWS V13.01,2013-04-10 20:48:00,
2013-04-10 16:53:00,87.3,47.2,29.84,WNW,283,4.5,6.2,25,0.00,,CLR,0.00,VWS V13.01,2013-04-10 20:53:00,
2013-04-10 16:58:00,87.3,47.2,29.84,WSW,257,7.8,10.3,25,0.00,,CLR,0.00,VWS V13.01,2013-04-10 20:58:00,
2013-04-10 17:03:00,87.1,47.0,29.84,SSW,212,3.9,7.8,25,0.00,,CLR,0.00,VWS V13.01,2013-04-10 21:03:00,
2013-04-10 17:08:00,87.1,47.0,29.84,West,265,12.6,12.6,25,0.00,,CLR,0.00,VWS V13.01,2013-04-10 21:08:00,
2013-04-10 17:13:00,87.1,47.0,29.84,SSE,151,9.5,9.5,25,0.00,,CLR,0.00,VWS V13.01,2013-04-10 21:13:00,
2013-04-10 17:18:00,86.9,46.9,29.84,WSW,240,5.0,8.9,25,0.00,,CLR,0.00,VWS V13.01,2013-04-10 21:18:00,
2013-04-10 17:23:00,86.5,46.6,29.84,NNW,331,3.9,10.1,25,0.00,,CLR,0.00,VWS V13.01,2013-04-10 21:23:00,
2013-04-10 17:28:00,86.4,46.4,29.84,SW,235,10.3,12.0,25,0.00,,CLR,0.00,VWS V13.01,2013-04-10 21:28:00,
2013-04-10 17:33:00,86.4,46.4,29.84,WSW,247,6.2,7.8,25,0.00,,CLR,0.00,VWS V13.01,2013-04-10 21:33:00,
2013-04-10 17:38:00,86.4,46.4,29.84,SW,218,10.1,13.1,25,0.00,,CLR,0.00,VWS V13.01,2013-04-10 21:38:00,
2013-04-10 17:43:00,86.4,46.4,29.84,WSW,251,10.3,10.3,25,0.00,,CLR,0.00,VWS V13.01,2013-04-10 21:43:00,
2013-04-10 17:48:00,86.2,46.3,29.84,South,177,8.9,10.9,25,0.00,,CLR,0.00,VWS V13.01,2013-04-10 21:48:00,
2013-04-10 17:53:00,86.0,46.1,29.84,SSW,192,6.7,10.1,25,0.00,,CLR,0.00,VWS V13.01,2013-04-10 21:53:00,
2013-04-10 17:58:00,85.8,46.0,29.84,SW,229,7.8,10.1,25,0.00,,CLR,0.00,VWS V13.01,2013-04-10 21:58:00,
2013-04-10 18:03:00,85.6,45.8,29.84,WSW,241,7.3,9.5,25,0.00,,CLR,0.00,VWS V13.01,2013-04-10 22:03:00,
2013-04-10 18:08:00,85.5,45.7,29.84,SW,226,7.8,7.8,25,0.00,,CLR,0.00,VWS V13.01,2013-04-10 22:08:00,
2013-04-10 18:13:00,85.5,45.7,29.84,West,270,3.9,7.3,25,0.00,,CLR,0.00,VWS V13.01,2013-04-10 22:13:00,
2013-04-10 18:18:00,85.3,45.5,29.84,SSW,193,7.8,9.5,25,0.00,,CLR,0.00,VWS V13.01,2013-04-10 22:18:00,
2013-04-10 18:23:00,85.1,45.4,29.84,West,280,12.6,12.6,25,0.00,,CLR,0.00,VWS V13.01,2013-04-10 22:23:00,
2013-04-10 18:28:00,85.1,45.4,29.84,SW,235,3.9,8.9,25,0.00,,CLR,0.00,VWS V13.01,2013-04-10 22:28:00,
2013-04-10 18:33:00,84.9,45.2,29.84,South,171,3.4,4.5,25,0.00,,CLR,0.00,VWS V13.01,2013-04-10 22:33:00,
2013-04-10 18:38:00,84.4,44.8,29.84,South,183,2.8,6.7,25,0.00,,CLR,0.00,VWS V13.01,2013-04-10 22:38:00,
2013-04-10 18:43:00,84.2,44.6,29.84,SSW,213,3.9,7.8,25,0.00,,CLR,0.00,VWS V13.01,2013-04-10 22:43:00,
2013-04-10 18:48:00,83.8,45.3,29.84,West,262,8.4,8.4,26,0.00,,CLR,0.00,VWS V13.01,2013-04-10 22:48:00,
2013-04-10 18:53:00,83.5,45.0,29.84,WNW,302,2.8,5.0,26,0.00,,CLR,0.00,VWS V13.01,2013-04-10 22:53:00,
2013-04-10 18:58:00,83.3,44.9,29.84,South,191,3.9,5.0,26,0.00,,CLR,0.00,VWS V13.01,2013-04-10 22:58:00,
2013-04-10 19:03:00,82.9,44.6,29.84,WSW,237,3.9,4.5,26,0.00,,CLR,0.00,VWS V13.01,2013-04-10 23:03:00,
2013-04-10 19:08:00,82.6,44.3,29.84,SW,216,4.5,6.7,26,0.00,,CLR,0.00,VWS V13.01,2013-04-10 23:08:00,
2013-04-10 19:13:00,82.2,44.0,29.84,SSE,165,0.0,4.5,26,0.00,,CLR,0.00,VWS V13.01,2013-04-10 23:13:00,
2013-04-10 19:18:00,81.9,43.7,29.84,WSW,245,2.8,3.9,26,0.00,,CLR,0.00,VWS V13.01,2013-04-10 23:18:00,
2013-04-10 19:23:00,81.5,43.3,29.84,WSW,241,3.9,4.5,26,0.00,,CLR,0.00,VWS V13.01,2013-04-10 23:23:00,
2013-04-10 19:28:00,81.1,43.0,29.84,SSW,206,3.4,3.4,26,0.00,,CLR,0.00,VWS V13.01,2013-04-10 23:28:00,
2013-04-10 19:33:00,81.0,42.9,29.84,SSE,147,0.0,0.0,26,0.00,,CLR,0.00,VWS V13.01,2013-04-10 23:33:00,
2013-04-10 19:38:00,80.8,42.7,29.84,South,178,2.8,3.9,26,0.00,,CLR,0.00,VWS V13.01,2013-04-10 23:38:00,
2013-04-10 19:43:00,80.4,43.4,29.84,SSW,196,2.8,4.5,27,0.00,,CLR,0.00,VWS V13.01,2013-04-10 23:43:00,
2013-04-10 19:48:00,80.1,43.1,29.84,South,188,2.8,3.9,27,0.00,,CLR,0.00,VWS V13.01,2013-04-10 23:48:00,
2013-04-10 19:53:00,79.7,42.8,29.84,SSW,192,0.0,3.9,27,0.00,,CLR,0.00,VWS V13.01,2013-04-10 23:53:00,
2013-04-10 19:58:00,79.3,42.5,29.84,SSE,165,0.0,3.4,27,0.00,,CLR,0.00,VWS V13.01,2013-04-10 23:58:00,
2013-04-10 20:03:00,79.0,42.2,29.84,SSW,213,0.0,0.0,27,0.00,,CLR,0.00,VWS V13.01,2013-04-11 00:03:00,
2013-04-10 20:08:00,79.0,42.2,29.84,SW,225,0.0,0.0,27,0.00,,CLR,0.00,VWS V13.01,2013-04-11 00:08:00,
2013-04-10 20:13:00,78.6,41.9,29.84,WSW,250,3.9,3.9,27,0.00,,CLR,0.00,VWS V13.01,2013-04-11 00:13:00,
2013-04-10 20:18:00,78.4,41.7,29.84,WSW,248,0.0,3.4,27,0.00,,CLR,0.00,VWS V13.01,2013-04-11 00:18:00,
2013-04-10 20:23:00,78.1,41.4,29.81,SSW,208,3.4,3.4,27,0.00,,CLR,0.00,VWS V13.01,2013-04-11 00:23:00,
2013-04-10 20:28:00,77.5,41.0,29.81,SW,236,3.9,5.0,27,0.00,,CLR,0.00,VWS V13.01,2013-04-11 00:28:00,
2013-04-10 20:33:00,77.2,40.7,29.81,West,267,0.0,3.9,27,0.00,,CLR,0.00,VWS V13.01,2013-04-11 00:33:00,
2013-04-10 20:38:00,77.0,40.5,29.84,South,169,3.4,4.5,27,0.00,,CLR,0.00,VWS V13.01,2013-04-11 00:38:00,
2013-04-10 20:43:00,76.8,40.3,29.84,SW,233,3.4,4.5,27,0.00,,CLR,0.00,VWS V13.01,2013-04-11 00:43:00,
2013-04-10 20:48:00,76.6,40.2,29.84,SW,218,0.0,0.0,27,0.00,,CLR,0.00,VWS V13.01,2013-04-11 00:48:00,
2013-04-10 20:53:00,76.8,40.3,29.84,SSE,153,0.0,0.0,27,0.00,,CLR,0.00,VWS V13.01,2013-04-11 00:53:00,
2013-04-10 20:58:00,76.8,40.3,29.84,WSW,241,0.0,3.4,27,0.00,,CLR,0.00,VWS V13.01,2013-04-11 00:58:00,
2013-04-10 21:03:00,76.5,40.0,29.84,SW,220,0.0,0.0,27,0.00,,CLR,0.00,VWS V13.01,2013-04-11 01:03:00,
2013-04-10 21:08:00,76.1,39.7,29.84,SSE,160,0.0,0.0,27,0.00,,CLR,0.00,VWS V13.01,2013-04-11 01:08:00,
2013-04-10 21:13:00,75.4,39.1,29.84,SSE,160,0.0,0.0,27,0.00,,CLR,0.00,VWS V13.01,2013-04-11 01:13:00,
2013-04-10 21:18:00,74.3,39.1,29.84,SSE,160,0.0,0.0,28,0.00,,CLR,0.00,VWS V13.01,2013-04-11 01:18:00,
2013-04-10 21:23:00,73.6,38.5,29.84,SSE,160,0.0,0.0,28,0.00,,CLR,0.00,VWS V13.01,2013-04-11 01:23:00,
2013-04-10 21:28:00,73.0,38.0,29.84,SSE,160,0.0,0.0,28,0.00,,CLR,0.00,VWS V13.01,2013-04-11 01:28:00,
2013-04-10 21:33:00,72.3,37.4,29.84,SSE,153,3.4,3.9,28,0.00,,CLR,0.00,VWS V13.01,2013-04-11 01:33:00,
2013-04-10 21:38:00,72.3,37.4,29.84,SSE,150,5.0,5.0,28,0.00,,CLR,0.00,VWS V13.01,2013-04-11 01:38:00,
2013-04-10 21:44:00,72.5,37.6,29.84,SE,146,2.8,6.2,28,0.00,,CLR,0.00,VWS V13.01,2013-04-11 01:44:00,
2013-04-10 21:49:00,72.7,37.7,29.84,South,171,4.5,4.5,28,0.00,,CLR,0.00,VWS V13.01,2013-04-11 01:49:00,
2013-04-10 21:54:00,72.7,37.7,29.84,SSE,155,0.0,3.9,28,0.00,,CLR,0.00,VWS V13.01,2013-04-11 01:54:00,
2013-04-10 21:59:00,72.7,37.7,29.84,South,169,0.0,3.4,28,0.00,,CLR,0.00,VWS V13.01,2013-04-11 01:59:00,
2013-04-10 22:04:00,72.5,37.6,29.84,South,171,0.0,3.4,28,0.00,,CLR,0.00,VWS V13.01,2013-04-11 02:04:00,
2013-04-10 22:09:00,72.3,37.4,29.87,South,184,4.5,4.5,28,0.00,,CLR,0.00,VWS V13.01,2013-04-11 02:09:00,
2013-04-10 22:14:00,72.0,37.1,29.87,SSW,194,3.4,4.5,28,0.00,,CLR,0.00,VWS V13.01,2013-04-11 02:14:00,
2013-04-10 22:19:00,71.8,37.0,29.87,SSE,158,0.0,0.0,28,0.00,,CLR,0.00,VWS V13.01,2013-04-11 02:19:00,
2013-04-10 22:24:00,72.0,37.1,29.87,South,176,2.8,3.4,28,0.00,,CLR,0.00,VWS V13.01,2013-04-11 02:24:00,
2013-04-10 22:29:00,72.1,37.3,29.87,South,180,3.4,3.4,28,0.00,,CLR,0.00,VWS V13.01,2013-04-11 02:29:00,
2013-04-10 22:34:00,72.5,37.6,29.87,ESE,122,2.8,4.5,28,0.00,,CLR,0.00,VWS V13.01,2013-04-11 02:34:00,
2013-04-10 22:39:00,72.9,37.9,29.84,West,264,5.0,5.0,28,0.00,,CLR,0.00,VWS V13.01,2013-04-11 02:39:00,
2013-04-10 22:44:00,73.2,38.2,29.84,West,264,6.7,6.7,28,0.00,,CLR,0.00,VWS V13.01,2013-04-11 02:44:00,
2013-04-10 22:49:00,73.4,38.3,29.84,West,267,5.0,5.0,28,0.00,,CLR,0.00,VWS V13.01,2013-04-11 02:49:00,
2013-04-10 22:54:00,73.4,38.3,29.87,WSW,252,3.9,7.3,28,0.00,,CLR,0.00,VWS V13.01,2013-04-11 02:54:00,
2013-04-10 22:59:00,73.2,38.2,29.87,WSW,237,3.4,5.0,28,0.00,,CLR,0.00,VWS V13.01,2013-04-11 02:59:00,
2013-04-10 23:04:00,73.2,38.2,29.87,WSW,238,3.9,6.7,28,0.00,,CLR,0.00,VWS V13.01,2013-04-11 03:04:00,
2013-04-10 23:09:00,73.0,38.0,29.87,WSW,255,3.9,4.5,28,0.00,,CLR,0.00,VWS V13.01,2013-04-11 03:09:00,
2013-04-10 23:14:00,72.9,37.9,29.87,WSW,256,4.5,5.0,28,0.00,,CLR,0.00,VWS V13.01,2013-04-11 03:14:00,
2013-04-10 23:19:00,72.7,37.7,29.87,WSW,250,0.0,2.8,28,0.00,,CLR,0.00,VWS V13.01,2013-04-11 03:19:00,
2013-04-10 23:24:00,72.5,37.6,29.87,North,4,0.0,3.9,28,0.00,,CLR,0.00,VWS V13.01,2013-04-11 03:24:00,
2013-04-10 23:29:00,71.6,36.8,29.87,NNW,334,0.0,0.0,28,0.00,,CLR,0.00,VWS V13.01,2013-04-11 03:29:00,
2013-04-10 23:34:00,70.5,36.8,29.87,NNW,334,0.0,0.0,29,0.00,,CLR,0.00,VWS V13.01,2013-04-11 03:34:00,
2013-04-10 23:39:00,69.8,36.1,29.87,NNW,334,0.0,0.0,29,0.00,,CLR,0.00,VWS V13.01,2013-04-11 03:39:00,
2013-04-10 23:44:00,69.1,35.5,29.87,NNW,334,0.0,0.0,29,0.00,,CLR,0.00,VWS V13.01,2013-04-11 03:44:00,
2013-04-10 23:49:00,68.5,35.0,29.87,NNE,25,0.0,0.0,29,0.00,,CLR,0.00,VWS V13.01,2013-04-11 03:49:00,
2013-04-10 23:54:00,68.2,34.7,29.87,WSW,242,0.0,3.9,29,0.00,,CLR,0.00,VWS V13.01,2013-04-11 03:54:00,
2013-04-10 23:59:00,68.0,34.6,29.87,WNW,299,2.8,4.5,29,0.00,,CLR,0.00,VWS V13.01,2013-04-11 03:59:00,